Change the Weather History Date:

Friday, February 14, 2014

  Actual Average Record
Temperature  
Mean Temperature 41 °F -  
Max Temperature 54 °F 38 °F 57 °F (2015)
Min Temperature 28 °F 14 °F -9 °F (1966)
Degree Days  
Heating Degree Days 24    
Moisture  
Dew Point 25 °F    
Average Humidity 54    
Maximum Humidity 85    
Minimum Humidity 28    
Precipitation  
Precipitation 0.00 in - - ()
Sea Level Pressure  
Sea Level Pressure 30.01 in    
Wind  
Wind Speed 10 mph (NW)    
Max Wind Speed 24 mph    
Max Gust Speed 38 mph    
Visibility 10 miles    
Events      
Averages and records for this station are not official NWS values.
T = Trace of Precipitation, MM = Missing Value Source: NWS Daily Summary

Daily Weather History Graph

Daily Weather History Graph

Search for Another Location

Airport or City:

Trip Planner

Search our weather history database for the weather conditions in past years. The results will help you decide how hot, cold, wet, or windy it might be!

Date:

Astronomy

Feb. 14, 2014 Rise Set
Actual Time 7:19 AM MST 6:06 PM MST
Civil Twilight 6:52 AM MST 6:33 PM MST
Nautical Twilight 6:21 AM MST 7:04 PM MST
Astronomical Twilight 5:51 AM MST 7:34 PM MST
Moon 6:13 PM MST (2/14) 6:48 AM MST (2/14)
Length of Visible Light 11h 41m
Length of Day
10h 47m
Full, 100% of the Moon is Illuminated
Feb 14
Full
Feb 14
Full
Feb 22
Last Quarter
Mar 1
New
Mar 8
First Quarter

Hourly Weather History & Observations

Time (MST) Temp. Windchill Dew Point Humidity Pressure Visibility Wind Dir Wind Speed Gust Speed Precip Events Conditions
12:53 AM 43.0 °F 34.8 °F 27.0 °F 53% 29.91 in 10.0 mi WNW 18.4 mph - N/A   Clear
1:53 AM 39.9 °F 33.4 °F 28.0 °F 63% 29.94 in 10.0 mi NW 10.4 mph - N/A   Clear
2:53 AM 35.1 °F - 27.0 °F 72% 29.97 in 10.0 mi Calm Calm - N/A   Clear
3:53 AM 35.1 °F 30.1 °F 26.1 °F 70% 29.98 in 10.0 mi NNE 5.8 mph - N/A   Clear
4:53 AM 28.9 °F 21.9 °F 25.0 °F 85% 30.00 in 10.0 mi South 6.9 mph - N/A   Clear
5:53 AM 28.0 °F 24.2 °F 24.1 °F 85% 30.04 in 10.0 mi East 3.5 mph - N/A   Clear
6:53 AM 30.9 °F 24.3 °F 25.0 °F 79% 30.05 in 10.0 mi NNE 6.9 mph - N/A   Clear
7:53 AM 37.0 °F 31.6 °F 28.9 °F 73% 30.03 in 10.0 mi NNE 6.9 mph - N/A   Clear
8:53 AM 45.0 °F 41.2 °F 28.9 °F 53% 30.03 in 10.0 mi Variable 6.9 mph 17.3 mph N/A   Clear
9:53 AM 48.0 °F - 28.9 °F 48% 30.02 in 10.0 mi WNW 9.2 mph - N/A   Clear
10:53 AM 50.0 °F - 28.0 °F 43% 30.02 in 10.0 mi WNW 9.2 mph - N/A   Clear
11:53 AM 52.0 °F - 26.1 °F 37% 29.99 in 10.0 mi NW 6.9 mph 17.3 mph N/A   Clear
12:53 PM 54.0 °F - 21.0 °F 28% 29.95 in 10.0 mi WNW 24.2 mph 38.0 mph N/A   Clear
1:53 PM 52.0 °F - 23.0 °F 32% 29.97 in 10.0 mi WNW 24.2 mph 28.8 mph N/A   Clear
2:53 PM 52.0 °F - 24.1 °F 34% 29.98 in 10.0 mi WNW 18.4 mph 25.3 mph N/A   Clear
3:53 PM 51.1 °F - 25.0 °F 36% 30.00 in 10.0 mi West 12.7 mph - N/A   Clear
4:53 PM 50.0 °F - 25.0 °F 38% 30.03 in 10.0 mi West 9.2 mph - N/A   Clear
5:53 PM 48.0 °F - 23.0 °F 37% 30.05 in 10.0 mi NW 9.2 mph - N/A   Clear
6:53 PM 39.0 °F 34.8 °F 26.1 °F 60% 30.10 in 10.0 mi NNE 5.8 mph - N/A   Clear
7:53 PM 42.1 °F 36.6 °F 23.0 °F 47% 30.05 in 10.0 mi NW 9.2 mph - N/A   Clear
8:53 PM 43.0 °F 37.7 °F 21.9 °F 43% 30.01 in 10.0 mi NW 9.2 mph - N/A   Clear
9:53 PM 36.0 °F - 24.1 °F 62% 30.04 in 10.0 mi Calm Calm - N/A   Clear
10:53 PM 37.9 °F 35.5 °F 21.0 °F 51% 30.02 in 10.0 mi SSE 3.5 mph - N/A   Clear
11:53 PM 35.1 °F - 21.0 °F 57% 30.01 in 10.0 mi Calm Calm - N/A   Clear